Date,TemperatureHighF,TemperatureAvgF,TemperatureLowF,DewpointHighF,DewpointAvgF,DewpointLowF,HumidityHigh,HumidityAvg,HumidityLow,PressureMaxIn,PressureMinIn,WindSpeedMaxMPH,WindSpeedAvgMPH,GustSpeedMaxMPH,PrecipitationSumIn
2013-1-1,100,83,66,66,55,41,84,46,17,29.92,29.68,10,2,14,0.00
2013-1-2,78,71,65,62,59,56,82,66,50,30.06,29.74,10,4,14,0.00
2013-1-3,78,70,64,59,56,54,79,62,48,30.12,29.98,9,3,10,0.00
2013-1-4,89,74,61,62,57,50,86,58,29,30.06,29.89,10,2,12,0.00
2013-1-5,96,78,62,63,58,50,85,55,22,30.04,29.92,7,2,11,0.00
2013-1-6,87,75,62,66,60,56,87,62,38,30.18,30.04,8,2,13,0.00
2013-1-7,86,76,69,65,62,58,81,63,44,30.21,29.95,9,2,15,0.00
2013-1-8,101,83,63,66,53,40,88,44,18,29.95,29.39,14,4,18,0.00
2013-1-9,88,77,68,60,51,41,63,44,20,29.77,29.27,14,5,17,0.00
2013-1-10,75,71,68,58,56,54,69,59,53,29.89,29.74,8,2,12,0.00
2013-1-11,99,80,65,66,62,51,85,58,21,29.89,29.62,11,2,13,0.00
2013-1-12,106,84,68,70,59,46,87,52,14,29.92,29.65,9,2,13,0.00
2013-1-13,83,73,66,67,64,60,89,74,55,29.92,29.68,13,3,14,0.00
2013-1-14,72,67,64,62,54,43,88,65,39,30.15,29.83,19,7,23,0.04
2013-1-15,78,70,62,57,55,50,77,61,41,30.15,29.98,9,3,14,0.00
2013-1-16,91,74,59,63,58,53,88,61,31,30.04,29.80,8,2,14,0.00
2013-1-17,94,79,68,67,64,56,86,62,37,29.92,29.62,10,3,15,0.00
2013-1-18,109,88,70,70,60,47,86,48,14,29.71,29.44,14,3,18,0.03
2013-1-19,76,71,66,61,58,53,84,65,49,30.01,29.71,17,5,22,0.18
2013-1-20,70,68,66,67,64,61,92,88,82,30.06,29.98,7,1,8,0.40
2013-1-21,79,72,67,69,65,62,95,79,58,30.01,29.86,7,2,12,0.00
2013-1-22,92,75,64,70,64,58,94,73,35,29.89,29.68,9,2,10,0.14
2013-1-23,74,69,66,66,63,45,90,81,47,30.30,29.80,12,4,15,0.00
2013-1-24,81,73,67,67,65,62,89,75,58,30.01,29.86,10,4,13,0.00
2013-1-25,87,77,66,71,66,63,93,73,49,29.92,29.74,9,2,13,0.00
2013-1-26,88,78,69,69,66,63,88,68,44,29.86,29.74,14,4,20,0.00
2013-1-27,74,71,70,69,68,65,94,88,78,29.80,29.68,7,2,10,1.41
2013-1-28,70,70,68,69,68,66,96,95,94,29.80,29.59,14,3,20,3.80
2013-1-29,80,72,67,74,68,61,97,86,65,29.77,29.47,12,2,17,0.59
2013-1-30,79,72,67,67,65,63,90,80,64,29.92,29.80,7,2,10,0.00
2013-1-31,90,77,70,71,67,61,89,73,41,29.92,29.62,8,2,11,0.00